CZ-6A DEB, 60814

Orbit data source: Space-Track

CZ-6A DEB, 60814 is space debris in LEO originally from a launch on Tue, 06 Aug 2024 UTC launched from the Taiyaun Space Center, China (TSC). Debris objects in space refer to the collection of defunct objects orbiting the Earth. Examples of debris include non-operational satellites, rocket bodies, and fragments generated from explosions, collisions, or faulty payload assembly.

Loading next visibility...
Identifier
60814, 2024-140GR
Orbit
LEO
Country
Flag of CNCN / PRC
Related business
Manufacturer
SAST
Mission
Spacecraft
Bus & Motor
Unknown
Mass
Unknown
Launch date (UTC)
2024-08-06 (1 year ago)
Launch vehicle
Unknown
Launch site
Taiyaun Space Center, China (TSC)
Object type
Payload
Rocket body
Debris
Shape & HBR
Unknown shape, 0.2 m
Radar Cross Section
Small (<0.1 m²)

Expand to show TLE details & history
Last TLE update: 1 day ago

TLE from 1 day ago
0 CZ-6A DEB
1 60814U 24140GR  25353.37112076  .00000704  00000-0  37351-3 0  9998
2 60814  89.0674 299.7305 0091834  75.1743 285.9593 14.10361458 69573
Epoch: 2025-12-19T08:54Z
TLE epoch observation values (Epoch: 2025-12-19T08:54:24.833Z)
Latitude
0.00001°
Longitude
77.91379°
Altitude
843.466 km
Speed
7.44 km/s
True Right ascension
19h 58m 55s
True Declination
0° 00' 00"
Sunlit
Object was in daylight at epoch
Visualization orbit readout
Latitude
Unknown
Longitude
Unknown
Altitude
Unknown
Speed
Unknown
Apparent Right ascension
Unknown
Apparent Declination
Unknown
Sunlit
N/A
Visualization observer readout
Local Sidereal Time
10:34:23
Azimuth
Unknown
Elevation
Unknown
Doppler factor
Unknown
Orbital elements
Apogee altitude
921.525 km
Perigee altitude
788.674 km
Semi-major axis
7,233.236 km
Eccentricity
0.00918
Inclination
89.0674°
RAAN
299.7305°
Arg. of periapsis
75.1743°
True anomaly
284.94437°
Mean anomaly
285.9593°
Eccentric anomaly
285.45215°
Mean motion
3.52813 °/min
Orbital period
102.04 mins
BSTAR
0.00037351
Loading maneuver chart data...
Computing Atmospheric mass density...

Documentation

Showing up to 5 results
|